Test XHTML 1.0 Strict Page for WU-History Testing
Datos historicos para Xert
Diario Historicos para Junio 22, 2024 unidades:  Imperiales    Metrico   Ambos
« Anterior Dia
Proximo Dia »
Diario Semanal Mensual Anual Personalizado
  Max: Min: Promedio:
Temperatura: 82.4 °F 59 °F 71.2 °F
Punto de rocio: 62.6 °F 53.6 °F 57.2 °F
Humedad: 83% 44% 63%
Viento: 24.2mph 0mph 6.2mph
Rafagas: 24.2mph - -
Viento- - SSW
Presion: 30.2 in 30.1 in -
Lluvia: 0 in    
Historical Graphs
 
 
Observa nuestra WebCam, mapa de radar de tormentas para Europa y mapa del radar de nuvosidad

Weather Camera

Radar Tormentas

Radar Sat24

Radar Meteociel





Condiciones meteorologicas Actuales:

Datos tabulados para Junio 22, 2024
Hora Temperatura Punto Rocio Presion Viento Viento Rafagas Humedad Tasa lluvia (1 hora) solar Condiciones
00:00 62.6 °F 55.4 °F 30.2 in Calm   1.9 mph 81% 0 in 0.00 W/m2 unknown
00:05 62.6 °F 55.4 °F 30.2 in Calm   1.9 mph 81% 0 in 0.00 W/m2 unknown
00:14 60.8 °F 55.4 °F 30.2 in Calm     82% 0 in 0.00 W/m2 unknown
00:19 60.8 °F 55.4 °F 30.2 in Calm     81% 0 in 0.00 W/m2 unknown
00:24 60.8 °F 55.4 °F 30.2 in Calm     81% 0 in 0.00 W/m2 unknown
00:29 60.8 °F 55.4 °F 30.2 in Calm     80% 0 in 0.00 W/m2 unknown
00:34 60.8 °F 55.4 °F 30.2 in Calm     79% 0 in 0.00 W/m2 unknown
00:39 62.6 °F 55.4 °F 30.2 in Calm     79% 0 in 0.00 W/m2 unknown
00:44 62.6 °F 55.4 °F 30.2 in Calm     78% 0 in 0.00 W/m2 unknown
00:49 62.6 °F 55.4 °F 30.2 in WSW 3.7 mph 3.7 mph 78% 0 in 0.00 W/m2 unknown
00:54 62.6 °F 55.4 °F 30.2 in WSW 1.9 mph 3.7 mph 77% 0 in 0.00 W/m2 unknown
00:59 62.6 °F 55.4 °F 30.2 in WNW 1.9 mph 5 mph 76% 0 in 0.00 W/m2 unknown
01:04 62.6 °F 55.4 °F 30.2 in WNW 3.1 mph 5 mph 76% 0 in 0.00 W/m2 unknown
01:09 64.4 °F 55.4 °F 30.2 in WNW 3.7 mph 3.7 mph 76% 0 in 0.00 W/m2 unknown
01:13 64.4 °F 55.4 °F 30.2 in WNW 5 mph 6.8 mph 75% 0 in 0.00 W/m2 unknown
01:19 64.4 °F 55.4 °F 30.2 in WNW 3.7 mph 6.8 mph 73% 0 in 0.00 W/m2 unknown
01:24 64.4 °F 55.4 °F 30.2 in WNW 1.9 mph 8.7 mph 72% 0 in 0.00 W/m2 unknown
01:29 64.4 °F 55.4 °F 30.2 in WNW 3.1 mph 5 mph 72% 0 in 0.00 W/m2 unknown
01:34 64.4 °F 55.4 °F 30.2 in WNW 3.1 mph 5 mph 72% 0 in 0.00 W/m2 unknown
01:39 64.4 °F 55.4 °F 30.2 in WNW 1.2 mph 3.1 mph 73% 0 in 0.00 W/m2 unknown
01:44 64.4 °F 55.4 °F 30.2 in WNW 1.2 mph 3.1 mph 75% 0 in 0.00 W/m2 unknown
01:49 62.6 °F 55.4 °F 30.2 in Calm   1.2 mph 75% 0 in 0.00 W/m2 unknown
01:54 62.6 °F 55.4 °F 30.2 in Calm   1.2 mph 76% 0 in 0.00 W/m2 unknown
01:59 62.6 °F 55.4 °F 30.2 in Calm     77% 0 in 0.00 W/m2 unknown
02:04 62.6 °F 53.6 °F 30.2 in Calm     77% 0 in 0.00 W/m2 unknown
02:09 60.8 °F 53.6 °F 30.2 in WNW 1.2 mph 1.2 mph 78% 0 in 0.00 W/m2 unknown
02:13 60.8 °F 53.6 °F 30.2 in Calm   1.2 mph 77% 0 in 0.00 W/m2 unknown
02:19 60.8 °F 53.6 °F 30.2 in WNW 3.1 mph 3.1 mph 78% 0 in 0.00 W/m2 unknown
02:24 62.6 °F 53.6 °F 30.2 in WNW 3.1 mph 3.1 mph 77% 0 in 0.00 W/m2 unknown
02:29 62.6 °F 53.6 °F 30.2 in WNW 3.7 mph 3.7 mph 76% 0 in 0.00 W/m2 unknown
02:34 62.6 °F 55.4 °F 30.2 in Calm   3.7 mph 76% 0 in 0.00 W/m2 unknown
02:38 62.6 °F 53.6 °F 30.2 in WNW 1.9 mph 1.9 mph 77% 0 in 0.00 W/m2 unknown
02:44 60.8 °F 53.6 °F 30.2 in WNW 3.1 mph 3.1 mph 78% 0 in 0.00 W/m2 unknown
02:49 60.8 °F 53.6 °F 30.2 in WNW 3.1 mph 3.1 mph 78% 0 in 0.00 W/m2 unknown
02:54 60.8 °F 53.6 °F 30.2 in WNW 3.1 mph 3.1 mph 78% 0 in 0.00 W/m2 unknown
02:59 60.8 °F 53.6 °F 30.2 in WNW 3.1 mph 3.1 mph 78% 0 in 0.00 W/m2 unknown
03:03 60.8 °F 53.6 °F 30.2 in West 3.1 mph 3.1 mph 78% 0 in 0.00 W/m2 unknown
03:09 60.8 °F 53.6 °F 30.2 in WNW 1.9 mph 3.1 mph 78% 0 in 0.00 W/m2 unknown
03:14 60.8 °F 53.6 °F 30.2 in Calm   3.1 mph 79% 0 in 0.00 W/m2 unknown
03:19 60.8 °F 53.6 °F 30.2 in WNW 3.1 mph 3.1 mph 79% 0 in 0.00 W/m2 unknown
03:24 60.8 °F 53.6 °F 30.2 in WNW 3.1 mph 3.7 mph 79% 0 in 0.00 W/m2 unknown
03:29 60.8 °F 53.6 °F 30.2 in WNW 3.7 mph 3.7 mph 79% 0 in 0.00 W/m2 unknown
03:34 60.8 °F 53.6 °F 30.2 in WNW 3.7 mph 3.7 mph 79% 0 in 0.00 W/m2 unknown
03:39 60.8 °F 53.6 °F 30.2 in WNW 3.1 mph 3.7 mph 79% 0 in 0.00 W/m2 unknown
03:44 60.8 °F 53.6 °F 30.2 in WNW 5 mph 5 mph 79% 0 in 0.00 W/m2 unknown
03:49 60.8 °F 53.6 °F 30.2 in WNW 3.1 mph 6.2 mph 78% 0 in 0.00 W/m2 unknown
03:53 60.8 °F 53.6 °F 30.2 in WNW 3.1 mph 6.2 mph 77% 0 in 0.00 W/m2 unknown
03:59 60.8 °F 53.6 °F 30.2 in WNW 3.1 mph 3.1 mph 78% 0 in 0.00 W/m2 unknown
04:04 60.8 °F 53.6 °F 30.2 in WNW 3.1 mph 3.1 mph 78% 0 in 0.00 W/m2 unknown
04:09 60.8 °F 53.6 °F 30.2 in WNW 3.1 mph 3.7 mph 78% 0 in 0.00 W/m2 unknown
04:14 60.8 °F 53.6 °F 30.2 in Calm   3.1 mph 78% 0 in 0.00 W/m2 unknown
04:19 60.8 °F 53.6 °F 30.1 in Calm   3.1 mph 78% 0 in 0.00 W/m2 unknown
04:24 60.8 °F 53.6 °F 30.1 in Calm     79% 0 in 0.00 W/m2 unknown
04:29 59 °F 53.6 °F 30.1 in Calm     80% 0 in 0.00 W/m2 unknown
04:34 59 °F 53.6 °F 30.1 in WNW 3.7 mph 3.7 mph 80% 0 in 0.00 W/m2 unknown
04:39 59 °F 53.6 °F 30.1 in WNW 3.1 mph 3.7 mph 81% 0 in 0.00 W/m2 unknown
04:43 59 °F 53.6 °F 30.1 in WNW 3.1 mph 3.7 mph 80% 0 in 0.00 W/m2 unknown
04:49 59 °F 53.6 °F 30.1 in WNW 3.7 mph 3.7 mph 81% 0 in 0.00 W/m2 unknown
04:54 59 °F 53.6 °F 30.1 in WNW 3.1 mph 3.7 mph 80% 0 in 0.00 W/m2 unknown
04:59 59 °F 53.6 °F 30.1 in WNW 3.1 mph 3.7 mph 80% 0 in 0.00 W/m2 unknown
05:04 59 °F 53.6 °F 30.1 in WNW 3.7 mph 3.7 mph 80% 0 in 0.00 W/m2 unknown
05:09 59 °F 53.6 °F 30.1 in WNW 3.1 mph 3.7 mph 80% 0 in 0.00 W/m2 unknown
05:14 59 °F 53.6 °F 30.1 in WNW 3.1 mph 3.7 mph 80% 0 in 0.00 W/m2 unknown
05:19 59 °F 53.6 °F 30.1 in WNW 1.2 mph 1.9 mph 80% 0 in 0.00 W/m2 unknown
05:24 59 °F 53.6 °F 30.1 in Calm   3.1 mph 81% 0 in 0.00 W/m2 unknown
05:29 59 °F 53.6 °F 30.1 in Calm   1.9 mph 81% 0 in 0.00 W/m2 unknown
05:34 59 °F 53.6 °F 30.1 in Calm   1.2 mph 81% 0 in 0.00 W/m2 unknown
05:39 59 °F 53.6 °F 30.1 in Calm     81% 0 in 0.00 W/m2 unknown
05:44 59 °F 53.6 °F 30.1 in Calm     81% 0 in 0.00 W/m2 unknown
05:49 59 °F 53.6 °F 30.1 in Calm     81% 0 in 0.00 W/m2 unknown
05:54 59 °F 53.6 °F 30.1 in Calm     82% 0 in 0.00 W/m2 unknown
05:58 59 °F 53.6 °F 30.1 in Calm     82% 0 in 0.00 W/m2 unknown
06:04 59 °F 53.6 °F 30.1 in Calm     82% 0 in 0.00 W/m2 unknown
06:14 59 °F 53.6 °F 30.1 in WNW 1.2 mph 1.2 mph 82% 0 in 0.00 W/m2 unknown
06:18 59 °F 53.6 °F 30.1 in WNW 1.9 mph 1.9 mph 82% 0 in 0.00 W/m2 unknown
06:24 59 °F 53.6 °F 30.1 in Calm   1.9 mph 82% 0 in 0.00 W/m2 unknown
06:29 59 °F 53.6 °F 30.1 in Calm   1.9 mph 81% 0 in 0.00 W/m2 unknown
06:34 59 °F 53.6 °F 30.1 in Calm     82% 0 in 0.00 W/m2 unknown
06:39 59 °F 53.6 °F 30.1 in Calm     82% 0 in 0.00 W/m2 unknown
06:44 59 °F 53.6 °F 30.1 in Calm     82% 0 in 0.00 W/m2 unknown
06:49 59 °F 53.6 °F 30.1 in Calm     81% 0 in 0.00 W/m2 unknown
06:53 59 °F 53.6 °F 30.1 in Calm     82% 0 in 0.00 W/m2 unknown
06:59 59 °F 53.6 °F 30.1 in Calm     82% 0 in 0.00 W/m2 unknown
07:04 59 °F 53.6 °F 30.1 in Calm     83% 0 in 0.00 W/m2 unknown
07:09 59 °F 53.6 °F 30.1 in Calm     83% 0 in 0.00 W/m2 unknown
07:14 59 °F 53.6 °F 30.1 in Calm     83% 0 in 0.00 W/m2 unknown
07:19 59 °F 53.6 °F 30.1 in Calm     83% 0 in 0.00 W/m2 unknown
07:24 59 °F 53.6 °F 30.1 in West 3.1 mph 3.1 mph 82% 0 in 0.00 W/m2 unknown
07:29 59 °F 53.6 °F 30.1 in WNW 1.9 mph 3.1 mph 82% 0 in 0.00 W/m2 unknown
07:34 59 °F 53.6 °F 30.1 in NW 1.2 mph 3.1 mph 82% 0 in 0.00 W/m2 unknown
07:39 59 °F 53.6 °F 30.1 in NW 1.9 mph 1.9 mph 82% 0 in 0.00 W/m2 unknown
07:44 60.8 °F 55.4 °F 30.1 in Calm     82% 0 in 0.00 W/m2 unknown
07:49 60.8 °F 55.4 °F 30.1 in Calm   1.9 mph 81% 0 in 0.00 W/m2 unknown
07:54 62.6 °F 55.4 °F 30.1 in Calm     80% 0 in 0.00 W/m2 unknown
07:59 62.6 °F 55.4 °F 30.1 in Calm     79% 0 in 0.00 W/m2 unknown
08:04 62.6 °F 55.4 °F 30.1 in Calm     78% 0 in 0.00 W/m2 unknown
08:09 64.4 °F 55.4 °F 30.1 in Calm     76% 0 in 0.00 W/m2 unknown
08:14 64.4 °F 57.2 °F 30.1 in Calm     77% 0 in 0.00 W/m2 unknown
08:19 64.4 °F 57.2 °F 30.1 in Calm     77% 0 in 0.00 W/m2 unknown
08:24 66.2 °F 57.2 °F 30.1 in Calm     77% 0 in 0.00 W/m2 unknown
08:29 66.2 °F 59 °F 30.1 in Calm     74% 0 in 0.00 W/m2 unknown
08:34 68 °F 59 °F 30.1 in SW 1.9 mph 1.9 mph 74% 0 in 0.00 W/m2 unknown
08:39 69.8 °F 59 °F 30.1 in West 1.9 mph 3.1 mph 68% 0 in 0.00 W/m2 unknown
08:44 71.6 °F 60.8 °F 30.1 in Calm   3.1 mph 68% 0 in 0.00 W/m2 unknown
08:48 71.6 °F 59 °F 30.1 in WSW 1.9 mph 1.9 mph 64% 0 in 0.00 W/m2 unknown
08:54 73.4 °F 57.2 °F 30.1 in West 6.8 mph 6.8 mph 60% 0 in 0.00 W/m2 unknown
08:59 73.4 °F 57.2 °F 30.1 in West 6.8 mph 6.8 mph 59% 0 in 0.00 W/m2 unknown
09:04 73.4 °F 57.2 °F 30.1 in West 6.8 mph 8.1 mph 58% 0 in 0.00 W/m2 unknown
09:09 73.4 °F 57.2 °F 30.1 in West 6.8 mph 8.1 mph 57% 0 in 0.00 W/m2 unknown
09:14 73.4 °F 57.2 °F 30.1 in West 6.8 mph 6.8 mph 56% 0 in 0.00 W/m2 unknown
09:19 75.2 °F 57.2 °F 30.1 in West 6.8 mph 8.1 mph 54% 0 in 0.00 W/m2 unknown
09:24 75.2 °F 57.2 °F 30.1 in West 6.8 mph 8.1 mph 53% 0 in 0.00 W/m2 unknown
09:29 75.2 °F 57.2 °F 30.1 in WSW 3.7 mph 6.8 mph 52% 0 in 0.00 W/m2 unknown
09:34 77 °F 57.2 °F 30.1 in WNW 6.2 mph 6.8 mph 51% 0 in 0.00 W/m2 unknown
09:39 77 °F 57.2 °F 30.1 in West 3.7 mph 6.2 mph 50% 0 in 0.00 W/m2 unknown
09:44 77 °F 57.2 °F 30.1 in WSW 5 mph 5 mph 49% 0 in 0.00 W/m2 unknown
09:49 77 °F 57.2 °F 30.1 in West 6.2 mph 6.2 mph 49% 0 in 0.00 W/m2 unknown
09:53 77 °F 55.4 °F 30.1 in WNW 6.2 mph 8.1 mph 47% 0 in 0.00 W/m2 unknown
09:59 78.8 °F 57.2 °F 30.1 in NW 6.2 mph 6.8 mph 48% 0 in 0.00 W/m2 unknown
10:04 78.8 °F 57.2 °F 30.1 in South 1.9 mph 6.8 mph 48% 0 in 0.00 W/m2 unknown
10:08 78.8 °F 57.2 °F 30.1 in WNW 5 mph 5 mph 47% 0 in 0.00 W/m2 unknown
10:14 78.8 °F 55.4 °F 30.1 in NW 6.2 mph 6.2 mph 45% 0 in 0.00 W/m2 unknown
10:19 78.8 °F 57.2 °F 30.1 in WNW 8.1 mph 8.1 mph 49% 0 in 0.00 W/m2 unknown
10:24 78.8 °F 59 °F 30.1 in ENE 8.1 mph 8.7 mph 51% 0 in 0.00 W/m2 unknown
10:29 78.8 °F 59 °F 30.1 in East 3.7 mph 8.7 mph 51% 0 in 0.00 W/m2 unknown
10:34 78.8 °F 59 °F 30.1 in SSE 6.8 mph 6.8 mph 51% 0 in 0.00 W/m2 unknown
10:39 78.8 °F 59 °F 30.1 in East 6.2 mph 6.8 mph 50% 0 in 0.00 W/m2 unknown
10:43 78.8 °F 59 °F 30.1 in ESE 5 mph 6.8 mph 51% 0 in 0.00 W/m2 unknown
10:49 78.8 °F 59 °F 30.1 in ENE 9.9 mph 9.9 mph 49% 0 in 0.00 W/m2 unknown
10:54 78.8 °F 59 °F 30.1 in East 6.2 mph 9.9 mph 49% 0 in 0.00 W/m2 unknown
10:59 78.8 °F 59 °F 30.1 in SE 5 mph 9.9 mph 50% 0 in 0.00 W/m2 unknown
11:04 78.8 °F 59 °F 30.1 in NW 5 mph 6.8 mph 49% 0 in 0.00 W/m2 unknown
11:08 78.8 °F 59 °F 30.1 in SSW 6.8 mph 6.8 mph 50% 0 in 0.00 W/m2 unknown
11:14 80.6 °F 57.2 °F 30.1 in South 6.2 mph 8.7 mph 47% 0 in 0.00 W/m2 unknown
11:19 80.6 °F 59 °F 30.1 in South 5 mph 8.7 mph 48% 0 in 0.00 W/m2 unknown
11:24 80.6 °F 59 °F 30.1 in South 3.7 mph 6.8 mph 47% 0 in 0.00 W/m2 unknown
11:29 80.6 °F 59 °F 30.1 in South 3.1 mph 5 mph 46% 0 in 0.00 W/m2 unknown
11:34 82.4 °F 59 °F 30.1 in ESE 8.7 mph 8.7 mph 46% 0 in 0.00 W/m2 unknown
11:39 82.4 °F 59 °F 30.1 in ESE 13 mph 13 mph 47% 0 in 0.00 W/m2 unknown
11:44 80.6 °F 59 °F 30.1 in SE 6.8 mph 13 mph 47% 0 in 0.00 W/m2 unknown
11:49 80.6 °F 59 °F 30.1 in ESE 6.8 mph 8.1 mph 46% 0 in 0.00 W/m2 unknown
11:54 80.6 °F 57.2 °F 30.1 in ESE 6.2 mph 8.1 mph 45% 0 in 0.00 W/m2 unknown
11:59 80.6 °F 57.2 °F 30.1 in SW 1.9 mph 6.8 mph 44% 0 in 0.00 W/m2 unknown
12:04 80.6 °F 59 °F 30.1 in SE 8.1 mph 8.1 mph 48% 0 in 0.00 W/m2 unknown
12:05 80.6 °F 59 °F 30.1 in SSE 6.2 mph 8.1 mph 48% 0 in 0.00 W/m2 unknown
12:14 80.6 °F 60.8 °F 30.1 in ESE 8.7 mph 8.7 mph 50% 0 in 0.00 W/m2 unknown
12:19 80.6 °F 60.8 °F 30.1 in ESE 8.1 mph 11.2 mph 51% 0 in 0.00 W/m2 unknown
12:24 80.6 °F 60.8 °F 30.1 in ESE 8.1 mph 8.7 mph 53% 0 in 0.00 W/m2 unknown
12:29 78.8 °F 60.8 °F 30.1 in ESE 8.7 mph 8.7 mph 54% 0 in 0.00 W/m2 unknown
12:34 78.8 °F 60.8 °F 30.1 in ESE 9.9 mph 9.9 mph 54% 0 in 0.00 W/m2 unknown
12:39 77 °F 60.8 °F 30.1 in East 8.7 mph 9.9 mph 54% 0 in 0.00 W/m2 unknown
12:44 77 °F 60.8 °F 30.1 in ENE 9.9 mph 9.9 mph 55% 0 in 0.00 W/m2 unknown
12:49 77 °F 60.8 °F 30.1 in ENE 8.7 mph 9.9 mph 56% 0 in 0.00 W/m2 unknown
12:53 77 °F 60.8 °F 30.1 in ENE 6.2 mph 9.9 mph 55% 0 in 0.00 W/m2 unknown
12:59 78.8 °F 60.8 °F 30.1 in ENE 6.2 mph 6.8 mph 56% 0 in 0.00 W/m2 unknown
13:04 78.8 °F 60.8 °F 30.1 in East 8.1 mph 8.1 mph 56% 0 in 0.00 W/m2 unknown
13:09 78.8 °F 60.8 °F 30.1 in East 6.2 mph 8.1 mph 55% 0 in 0.00 W/m2 unknown
13:14 78.8 °F 60.8 °F 30.1 in ENE 5 mph 8.1 mph 54% 0 in 0.00 W/m2 unknown
13:19 78.8 °F 60.8 °F 30.1 in East 6.8 mph 6.8 mph 55% 0 in 0.00 W/m2 unknown
13:24 78.8 °F 60.8 °F 30.1 in East 8.1 mph 8.7 mph 54% 0 in 0.00 W/m2 unknown
13:29 78.8 °F 60.8 °F 30.1 in ESE 11.2 mph 11.2 mph 55% 0 in 0.00 W/m2 unknown
13:33 77 °F 60.8 °F 30.1 in ESE 13 mph 13 mph 55% 0 in 0.00 W/m2 unknown
13:39 78.8 °F 60.8 °F 30.1 in ESE 8.7 mph 13 mph 56% 0 in 0.00 W/m2 unknown
13:44 78.8 °F 60.8 °F 30.1 in ESE 8.1 mph 13 mph 55% 0 in 0.00 W/m2 unknown
13:49 78.8 °F 60.8 °F 30.1 in East 8.1 mph 11.2 mph 54% 0 in 0.00 W/m2 unknown
13:54 78.8 °F 60.8 °F 30.1 in ESE 6.8 mph 9.9 mph 54% 0 in 0.00 W/m2 unknown
13:59 78.8 °F 60.8 °F 30.1 in East 5 mph 8.7 mph 55% 0 in 0.00 W/m2 unknown
14:04 78.8 °F 60.8 °F 30.1 in East 6.8 mph 6.8 mph 54% 0 in 0.00 W/m2 unknown
14:09 78.8 °F 60.8 °F 30.1 in East 8.7 mph 8.7 mph 55% 0 in 0.00 W/m2 unknown
14:14 78.8 °F 60.8 °F 30.1 in ESE 6.2 mph 8.7 mph 56% 0 in 0.00 W/m2 unknown
14:19 78.8 °F 62.6 °F 30.1 in East 8.7 mph 8.7 mph 57% 0 in 0.00 W/m2 unknown
14:24 78.8 °F 62.6 °F 30.1 in East 8.7 mph 8.7 mph 58% 0 in 0.00 W/m2 unknown
14:29 77 °F 62.6 °F 30.1 in ENE 8.7 mph 8.7 mph 58% 0 in 0.00 W/m2 unknown
14:33 77 °F 60.8 °F 30.1 in ESE 9.9 mph 9.9 mph 56% 0 in 0.00 W/m2 unknown
14:39 78.8 °F 60.8 °F 30.1 in East 6.2 mph 9.9 mph 56% 0 in 0.00 W/m2 unknown
14:44 78.8 °F 60.8 °F 30.1 in SE 8.7 mph 9.9 mph 56% 0 in 0.00 W/m2 unknown
14:49 78.8 °F 60.8 °F 30.1 in ESE 6.8 mph 8.7 mph 55% 0 in 0.00 W/m2 unknown
14:54 78.8 °F 60.8 °F 30.1 in East 8.7 mph 11.2 mph 54% 0 in 0.00 W/m2 unknown
14:59 78.8 °F 60.8 °F 30.1 in ESE 8.7 mph 8.7 mph 55% 0 in 0.00 W/m2 unknown
15:04 78.8 °F 60.8 °F 30.1 in East 6.8 mph 9.9 mph 55% 0 in 0.00 W/m2 unknown
15:09 78.8 °F 60.8 °F 30.1 in ESE 6.2 mph 6.8 mph 54% 0 in 0.00 W/m2 unknown
15:14 78.8 °F 59 °F 30.1 in ESE 6.2 mph 6.8 mph 53% 0 in 0.00 W/m2 unknown
15:19 78.8 °F 60.8 °F 30.1 in ESE 3.7 mph 8.7 mph 54% 0 in 0.00 W/m2 unknown
15:24 78.8 °F 60.8 °F 30.1 in East 6.2 mph 6.2 mph 55% 0 in 0.00 W/m2 unknown
15:29 78.8 °F 60.8 °F 30.1 in ESE 6.2 mph 6.2 mph 55% 0 in 0.00 W/m2 unknown
15:34 78.8 °F 60.8 °F 30.1 in East 6.2 mph 6.2 mph 55% 0 in 0.00 W/m2 unknown
15:39 78.8 °F 60.8 °F 30.1 in ENE 6.8 mph 6.8 mph 55% 0 in 0.00 W/m2 unknown
15:44 78.8 °F 60.8 °F 30.1 in ENE 6.8 mph 6.8 mph 55% 0 in 0.00 W/m2 unknown
15:49 78.8 °F 60.8 °F 30.1 in East 8.1 mph 8.7 mph 55% 0 in 0.00 W/m2 unknown
15:54 78.8 °F 60.8 °F 30.1 in East 6.2 mph 6.2 mph 55% 0 in 0.00 W/m2 unknown
15:59 78.8 °F 60.8 °F 30.1 in ESE 8.7 mph 8.7 mph 56% 0 in 0.00 W/m2 unknown
16:04 78.8 °F 60.8 °F 30.1 in ESE 6.8 mph 8.7 mph 56% 0 in 0.00 W/m2 unknown
16:09 78.8 °F 62.6 °F 30.1 in East 6.8 mph 8.1 mph 57% 0 in 0.00 W/m2 unknown
16:14 78.8 °F 62.6 °F 30.1 in East 8.7 mph 8.7 mph 57% 0 in 0.00 W/m2 unknown
16:19 78.8 °F 62.6 °F 30.1 in ESE 8.1 mph 8.7 mph 56% 0 in 0.00 W/m2 unknown
16:23 78.8 °F 62.6 °F 30.1 in ESE 9.9 mph 9.9 mph 57% 0 in 0.00 W/m2 unknown
16:29 78.8 °F 62.6 °F 30.1 in SE 8.7 mph 9.9 mph 58% 0 in 0.00 W/m2 unknown
16:34 78.8 °F 62.6 °F 30.1 in SE 8.1 mph 9.9 mph 59% 0 in 0.00 W/m2 unknown
16:39 78.8 °F 62.6 °F 30.1 in SSE 6.2 mph 8.7 mph 59% 0 in 0.00 W/m2 unknown
16:44 78.8 °F 62.6 °F 30.1 in SE 5 mph 6.8 mph 58% 0 in 0.00 W/m2 unknown
16:49 78.8 °F 62.6 °F 30.1 in South 8.7 mph 8.7 mph 59% 0 in 0.00 W/m2 unknown
16:54 78.8 °F 62.6 °F 30.1 in SSE 8.1 mph 8.7 mph 57% 0 in 0.00 W/m2 unknown
16:59 78.8 °F 62.6 °F 30.1 in SE 3.7 mph 8.7 mph 57% 0 in 0.00 W/m2 unknown
17:04 78.8 °F 62.6 °F 30.1 in SSE 6.2 mph 6.8 mph 57% 0 in 0.00 W/m2 unknown
17:09 78.8 °F 60.8 °F 30.1 in SSE 5 mph 6.2 mph 55% 0 in 0.00 W/m2 unknown
17:14 78.8 °F 60.8 °F 30.1 in South 5 mph 6.8 mph 55% 0 in 0.00 W/m2 unknown
17:19 78.8 °F 60.8 °F 30.1 in South 3.1 mph 6.8 mph 55% 0 in 0.00 W/m2 unknown
17:24 78.8 °F 60.8 °F 30.1 in SW 3.1 mph 5 mph 54% 0 in 0.00 W/m2 unknown
17:29 78.8 °F 60.8 °F 30.1 in SSW 6.8 mph 6.8 mph 54% 0 in 0.00 W/m2 unknown
17:34 78.8 °F 60.8 °F 30.1 in SSW 6.8 mph 8.1 mph 54% 0 in 0.00 W/m2 unknown
17:39 78.8 °F 60.8 °F 30.1 in South 3.7 mph 8.7 mph 52% 0 in 0.00 W/m2 unknown
17:44 78.8 °F 60.8 °F 30.1 in South 6.2 mph 8.7 mph 52% 0 in 0.00 W/m2 unknown
17:49 78.8 °F 60.8 °F 30.1 in SSE 6.8 mph 6.8 mph 53% 0 in 0.00 W/m2 unknown
17:54 78.8 °F 60.8 °F 30.1 in SSW 5 mph 6.8 mph 53% 0 in 0.00 W/m2 unknown
17:58 78.8 °F 59 °F 30.1 in SW 1.9 mph 6.8 mph 52% 0 in 0.00 W/m2 unknown
18:04 78.8 °F 59 °F 30.1 in SSE 3.7 mph 6.8 mph 51% 0 in 0.00 W/m2 unknown
18:05 78.8 °F 59 °F 30.1 in SE 3.1 mph 3.7 mph 51% 0 in 0.00 W/m2 unknown
18:14 78.8 °F 59 °F 30.1 in SW 3.7 mph 3.7 mph 50% 0 in 0.00 W/m2 unknown
18:19 78.8 °F 59 °F 30.1 in SSW 5 mph 5 mph 50% 0 in 0.00 W/m2 unknown
18:24 78.8 °F 57.2 °F 30.1 in SW 1.9 mph 5 mph 47% 0 in 0.00 W/m2 unknown
18:29 78.8 °F 57.2 °F 30.1 in SSW 5 mph 5 mph 47% 0 in 0.00 W/m2 unknown
18:34 78.8 °F 57.2 °F 30.1 in SW 3.1 mph 5 mph 47% 0 in 0.00 W/m2 unknown
18:39 78.8 °F 57.2 °F 30.1 in SW 5 mph 5 mph 48% 0 in 0.00 W/m2 unknown
18:44 78.8 °F 57.2 °F 30.1 in SW 3.1 mph 5 mph 48% 0 in 0.00 W/m2 unknown
18:49 80.6 °F 57.2 °F 30.1 in SSW 3.7 mph 5 mph 47% 0 in 0.00 W/m2 unknown
18:54 80.6 °F 57.2 °F 30.1 in SSW 3.1 mph 3.7 mph 47% 0 in 0.00 W/m2 unknown
18:59 78.8 °F 59 °F 30.1 in South 3.1 mph 3.7 mph 48% 0 in 0.00 W/m2 unknown
19:04 78.8 °F 59 °F 30.1 in ESE 5 mph 5 mph 49% 0 in 0.00 W/m2 unknown
19:09 78.8 °F 60.8 °F 30.1 in ENE 8.7 mph 8.7 mph 55% 0 in 0.00 W/m2 unknown
19:14 78.8 °F 60.8 °F 30.1 in ENE 6.8 mph 8.7 mph 56% 0 in 0.00 W/m2 unknown
19:18 77 °F 60.8 °F 30.1 in NE 9.9 mph 9.9 mph 57% 0 in 0.00 W/m2 unknown
19:24 77 °F 60.8 °F 30.1 in NNE 6.8 mph 9.9 mph 57% 0 in 0.00 W/m2 unknown
19:29 77 °F 60.8 °F 30.1 in NE 6.2 mph 9.9 mph 57% 0 in 0.00 W/m2 unknown
19:34 77 °F 60.8 °F 30.1 in ENE 3.7 mph 8.1 mph 57% 0 in 0.00 W/m2 unknown
19:39 77 °F 60.8 °F 30.1 in NNE 8.7 mph 8.7 mph 57% 0 in 0.00 W/m2 unknown
19:44 77 °F 59 °F 30.1 in NNW 11.8 mph 11.8 mph 54% 0 in 0.00 W/m2 unknown
19:49 77 °F 59 °F 30.1 in NNW 11.8 mph 11.8 mph 54% 0 in 0.00 W/m2 unknown
19:54 77 °F 59 °F 30.1 in North 9.9 mph 11.8 mph 54% 0 in 0.00 W/m2 unknown
19:59 77 °F 59 °F 30.1 in North 11.2 mph 11.8 mph 55% 0 in 0.00 W/m2 unknown
20:04 77 °F 59 °F 30.1 in North 11.2 mph 11.2 mph 55% 0 in 0.00 W/m2 unknown
20:09 77 °F 59 °F 30.1 in North 13 mph 13 mph 55% 0 in 0.00 W/m2 unknown
20:14 75.2 °F 59 °F 30.1 in North 14.9 mph 14.9 mph 55% 0 in 0.00 W/m2 unknown
20:19 75.2 °F 59 °F 30.1 in North 16.2 mph 16.2 mph 56% 0 in 0.00 W/m2 unknown
20:24 75.2 °F 59 °F 30.1 in North 18 mph 18 mph 56% 0 in 0.00 W/m2 unknown
20:29 75.2 °F 57.2 °F 30.1 in NNW 13 mph 18 mph 56% 0 in 0.00 W/m2 unknown
20:34 75.2 °F 57.2 °F 30.1 in North 14.9 mph 18 mph 56% 0 in 0.00 W/m2 unknown
20:39 75.2 °F 57.2 °F 30.1 in North 18 mph 18 mph 56% 0 in 0.00 W/m2 unknown
20:44 73.4 °F 57.2 °F 30.1 in North 11.8 mph 18 mph 57% 0 in 0.00 W/m2 unknown
20:49 73.4 °F 57.2 °F 30.1 in North 14.3 mph 18 mph 57% 0 in 0.00 W/m2 unknown
20:53 73.4 °F 57.2 °F 30.1 in North 13 mph 16.2 mph 57% 0 in 0.00 W/m2 unknown
20:59 73.4 °F 57.2 °F 30.1 in North 11.2 mph 14.9 mph 57% 0 in 0.00 W/m2 unknown
21:04 73.4 °F 57.2 °F 30.1 in NNW 8.7 mph 11.8 mph 57% 0 in 0.00 W/m2 unknown
21:09 73.4 °F 57.2 °F 30.1 in North 8.1 mph 11.8 mph 57% 0 in 0.00 W/m2 unknown
21:13 73.4 °F 57.2 °F 30.1 in WNW 13 mph 14.3 mph 56% 0 in 0.00 W/m2 unknown
21:19 73.4 °F 57.2 °F 30.1 in NW 8.7 mph 14.3 mph 57% 0 in 0.00 W/m2 unknown
21:24 73.4 °F 57.2 °F 30.1 in WNW 9.9 mph 13 mph 56% 0 in 0.00 W/m2 unknown
21:29 73.4 °F 57.2 °F 30.1 in West 5 mph 11.2 mph 57% 0 in 0.00 W/m2 unknown
21:34 73.4 °F 57.2 °F 30.1 in West 13 mph 13 mph 57% 0 in 0.00 W/m2 unknown
21:38 73.4 °F 57.2 °F 30.1 in West 14.3 mph 14.3 mph 57% 0 in 0.00 W/m2 unknown
21:44 73.4 °F 57.2 °F 30.1 in West 11.8 mph 14.3 mph 57% 0 in 0.00 W/m2 unknown
21:49 73.4 °F 57.2 °F 30.1 in West 16.2 mph 16.2 mph 57% 0 in 0.00 W/m2 unknown
21:54 73.4 °F 57.2 °F 30.1 in West 16.8 mph 16.8 mph 57% 0 in 0.00 W/m2 unknown
21:59 73.4 °F 57.2 °F 30.1 in West 16.8 mph 16.8 mph 57% 0 in 0.00 W/m2 unknown
22:04 73.4 °F 57.2 °F 30.1 in West 11.2 mph 16.8 mph 57% 0 in 0.00 W/m2 unknown
22:09 71.6 °F 57.2 °F 30.1 in West 16.8 mph 16.8 mph 57% 0 in 0.00 W/m2 unknown
22:13 71.6 °F 55.4 °F 30.1 in West 16.8 mph 16.8 mph 57% 0 in 0.00 W/m2 unknown
22:19 71.6 °F 55.4 °F 30.1 in WNW 18 mph 19.3 mph 57% 0 in 0.00 W/m2 unknown
22:24 71.6 °F 55.4 °F 30.1 in WNW 16.2 mph 19.3 mph 57% 0 in 0.00 W/m2 unknown
22:29 71.6 °F 55.4 °F 30.1 in WNW 19.3 mph 19.3 mph 57% 0 in 0.00 W/m2 unknown
22:34 71.6 °F 55.4 °F 30.1 in WNW 13 mph 13 mph 57% 0 in 0.00 W/m2 unknown
22:39 71.6 °F 55.4 °F 30.1 in WNW 19.9 mph 19.9 mph 57% 0 in 0.00 W/m2 unknown
22:44 71.6 °F 55.4 °F 30.1 in WNW 19.3 mph 21.1 mph 57% 0 in 0.00 W/m2 unknown
22:49 71.6 °F 55.4 °F 30.1 in WNW 21.7 mph 21.7 mph 57% 0 in 0.00 W/m2 unknown
22:54 69.8 °F 55.4 °F 30.1 in WNW 21.7 mph 21.7 mph 58% 0 in 0.00 W/m2 unknown
22:58 69.8 °F 55.4 °F 30.1 in WNW 19.3 mph 21.7 mph 58% 0 in 0.00 W/m2 unknown
23:04 69.8 °F 55.4 °F 30.1 in NW 16.8 mph 21.7 mph 59% 0 in 0.00 W/m2 unknown
23:09 69.8 °F 55.4 °F 30.1 in WNW 21.7 mph 24.2 mph 59% 0 in 0.00 W/m2 unknown
23:14 69.8 °F 55.4 °F 30.1 in WNW 16.2 mph 24.2 mph 59% 0 in 0.00 W/m2 unknown
23:19 69.8 °F 55.4 °F 30.1 in NW 19.9 mph 24.2 mph 59% 0 in 0.00 W/m2 unknown
23:23 69.8 °F 53.6 °F 30.1 in WNW 14.3 mph 21.1 mph 59% 0 in 0.00 W/m2 unknown
23:29 69.8 °F 53.6 °F 30.1 in WNW 21.1 mph 21.1 mph 59% 0 in 0.00 W/m2 unknown
23:34 69.8 °F 53.6 °F 30.1 in WNW 16.2 mph 21.1 mph 59% 0 in 0.00 W/m2 unknown
23:39 69.8 °F 53.6 °F 30.1 in NW 14.9 mph 16.8 mph 59% 0 in 0.00 W/m2 unknown
23:44 69.8 °F 53.6 °F 30.1 in NW 24.2 mph 24.2 mph 59% 0 in 0.00 W/m2 unknown
23:49 69.8 °F 53.6 °F 30.1 in NW 19.9 mph 24.2 mph 59% 0 in 0.00 W/m2 unknown
23:50 69.8 °F 53.6 °F 30.1 in NW 6.8 mph 24.2 mph 59% 0 in 0.00 W/m2 unknown
23:55 68 °F 53.6 °F 30.1 in NNW 8.1 mph 19.9 mph 59% 0 in 0.00 W/m2 unknown
Datos historicos para Xert